Location: Hylvaty SDH
(49.9612°N, 16.4057°E)
Time: 20:38:29
(UTC+02:00)

Transit 4A - Pass Details

Date: 13 August 2020
Orbit: 862 x 982 km, 66.8° (Epoch: 28 September)

Event Time Altitude Azimuth Distance (km) Brightness Sun altitude
Rises 13:16:58 0° 291° (WNW) 3,572 10.9 54.3°
Reaches altitude 10° 13:20:27 10° 311° (NW) 2,655 10.2 54.2°
Maximum altitude 13:24:27 17° 352° (N) 2,189 9.7 54.1°
Drops below altitude 10° 13:28:31 10° 32° (NNE) 2,706 10.1 54.0°
Sets 13:32:07 0° 52° (NE) 3,671 10.7 53.8°
